Lincoln, IL

3:13 PM CST on December 11, 2017 (GMT -0600)
Lincoln

Weather History for KAAA - December, 2013

Change the Weather History Date:

Thursday, December 19, 2013

  Actual Average (KSPI) Record (KSPI)
Temperature  
Mean Temperature 41 °F -  
Max Temperature 46 °F 37 °F 60 °F (1957)
Min Temperature 37 °F 21 °F -15 °F (1981)
Degree Days  
Heating Degree Days 24    
Moisture  
Dew Point 38 °F    
Average Humidity 86    
Maximum Humidity 94    
Minimum Humidity 78    
Precipitation  
Precipitation 0.07 in - - ()
Sea Level Pressure  
Sea Level Pressure 29.86 in    
Wind  
Wind Speed 10 mph (South)    
Max Wind Speed 13 mph    
Max Gust Speed 17 mph    
Visibility 9 miles    
Events Rain    
Averages and records for this station are not official NWS values.
T = Trace of Precipitation, MM = Missing Value Source: NWS Daily Summary

Daily Weather History Graph

Daily Weather History Graph

Search for Another Location

Airport or City:

Trip Planner

Search our weather history database for the weather conditions in past years. The results will help you decide how hot, cold, wet, or windy it might be!

Date:

Astronomy

Dec. 19, 2013 Rise Set
Actual Time 7:15 AM CST 4:34 PM CST
Civil Twilight 6:44 AM CST 5:04 PM CST
Nautical Twilight 6:10 AM CST 5:38 PM CST
Astronomical Twilight 5:37 AM CST 6:11 PM CST
Moon 6:59 PM CST (12/19) 8:33 AM CST (12/19)
Length of Visible Light 10h 20m
Length of Day
9h 18m
Waning Gibbous, 95% of the Moon is Illuminated
Dec 19
Waning Gibbous
Dec 25
Last Quarter
Jan 1
New
Jan 7
First Quarter
Jan 15
Full

Hourly Weather History & Observations

Time (CST) Temp. Windchill Dew Point Humidity Pressure Visibility Wind Dir Wind Speed Gust Speed Precip Events Conditions
12:15 AM 39.2 °F 33.0 °F 32.9 °F 78% 29.90 in 10.0 mi South 9.2 mph - 0.01 in   Clear
12:35 AM 39.2 °F 33.0 °F 32.9 °F 78% 29.89 in 10.0 mi South 9.2 mph 16.1 mph 0.01 in   Clear
12:55 AM 39.2 °F 32.5 °F 32.9 °F 78% 29.89 in 10.0 mi South 10.4 mph - 0.02 in   Clear
1:15 AM 38.7 °F 30.9 °F 32.9 °F 80% 29.89 in 10.0 mi South 12.7 mph - 0.01 in   Clear
1:35 AM 37.9 °F 30.0 °F 32.9 °F 82% 29.89 in 10.0 mi South 12.7 mph - 0.01 in   Clear
1:55 AM 38.3 °F 31.4 °F 33.3 °F 82% 29.89 in 10.0 mi South 10.4 mph - 0.01 in   Clear
2:15 AM 37.9 °F 30.9 °F 33.3 °F 83% 29.90 in 10.0 mi South 10.4 mph - N/A   Clear
2:35 AM 38.3 °F 30.9 °F 33.8 °F 84% 29.90 in 10.0 mi South 11.5 mph 16.1 mph N/A   Clear
2:55 AM 38.3 °F 30.9 °F 33.8 °F 84% 29.90 in 10.0 mi South 11.5 mph - 0.01 in   Clear
3:15 AM 38.3 °F 30.5 °F 33.8 °F 84% 29.90 in 10.0 mi South 12.7 mph - N/A   Clear
3:35 AM 38.3 °F 30.9 °F 34.2 °F 85% 29.89 in 10.0 mi South 11.5 mph 17.3 mph 0.01 in   Clear
3:55 AM 38.7 °F 30.9 °F 34.7 °F 86% 29.89 in 10.0 mi South 12.7 mph 17.3 mph 0.01 in   Clear
4:15 AM 39.2 °F 33.0 °F 34.7 °F 84% 29.89 in 10.0 mi SSW 9.2 mph 17.3 mph 0.01 in   Clear
4:35 AM 39.2 °F 33.0 °F 35.1 °F 85% 29.89 in 10.0 mi South 9.2 mph 16.1 mph 0.01 in   Clear
4:55 AM 39.4 °F 32.7 °F 35.4 °F 86% 29.89 in 10.0 mi South 10.4 mph - 0.02 in   Clear
5:15 AM 39.6 °F 33.0 °F 35.6 °F 86% 29.89 in 10.0 mi South 10.4 mph 16.1 mph N/A   Clear
5:35 AM 40.1 °F 34.1 °F 35.6 °F 84% 29.89 in 10.0 mi South 9.2 mph 16.1 mph N/A   Clear
5:55 AM 39.9 °F 34.5 °F 35.8 °F 85% 29.89 in 10.0 mi South 8.1 mph - N/A   Clear
6:15 AM 39.6 °F 34.0 °F 35.6 °F 86% 29.89 in 10.0 mi South 8.1 mph - N/A   Clear
6:35 AM 39.6 °F 34.7 °F 35.8 °F 86% 29.90 in 10.0 mi South 6.9 mph - N/A   Clear
6:55 AM 39.2 °F 33.6 °F 35.6 °F 87% 29.90 in 10.0 mi South 8.1 mph - N/A   Clear
7:15 AM 39.2 °F 33.6 °F 35.6 °F 87% 29.90 in 10.0 mi South 8.1 mph - N/A   Clear
7:35 AM 38.7 °F 32.9 °F 35.6 °F 89% 29.90 in 10.0 mi South 8.1 mph - N/A   Clear
7:55 AM 39.7 °F 33.7 °F 36.1 °F 87% 29.90 in 10.0 mi South 9.2 mph - N/A   Clear
8:15 AM 40.1 °F 33.6 °F 36.0 °F 85% 29.91 in 10.0 mi South 10.4 mph - N/A   Clear
8:35 AM 39.7 °F 33.7 °F 35.8 °F 86% 29.91 in 10.0 mi South 9.2 mph - N/A   Clear
8:55 AM 39.6 °F 33.5 °F 35.6 °F 86% 29.92 in 10.0 mi South 9.2 mph - N/A   Clear
9:15 AM 39.2 °F 34.2 °F 35.6 °F 87% 29.92 in 10.0 mi South 6.9 mph - N/A   Clear
9:35 AM 39.2 °F 33.6 °F 35.6 °F 87% 29.92 in 10.0 mi South 8.1 mph - N/A   Clear
9:55 AM 39.6 °F 33.5 °F 35.6 °F 86% 29.92 in 10.0 mi South 9.2 mph - N/A   Clear
10:15 AM 39.7 °F 33.2 °F 35.8 °F 86% 29.93 in 10.0 mi South 10.4 mph - N/A   Clear
10:35 AM 39.7 °F 33.7 °F 35.6 °F 85% 29.92 in 10.0 mi South 9.2 mph - N/A   Clear
10:55 AM 40.3 °F 33.9 °F 36.0 °F 85% 29.92 in 10.0 mi South 10.4 mph - N/A   Clear
11:15 AM 40.8 °F 34.5 °F 36.1 °F 83% 29.91 in 10.0 mi South 10.4 mph - N/A   Clear
11:35 AM 40.8 °F 34.5 °F 36.1 °F 83% 29.91 in 10.0 mi South 10.4 mph - N/A   Clear
11:55 AM 41.0 °F 34.7 °F 36.1 °F 83% 29.91 in 10.0 mi South 10.4 mph - N/A   Clear
12:15 PM 42.8 °F 36.6 °F 36.9 °F 80% 29.89 in 10.0 mi South 11.5 mph - N/A   Clear
12:35 PM 42.3 °F 36.8 °F 36.5 °F 80% 29.89 in 10.0 mi South 9.2 mph - N/A   Clear
12:55 PM 42.8 °F 37.0 °F 36.9 °F 80% 29.88 in 10.0 mi South 10.4 mph - N/A   Scattered Clouds
1:15 PM 43.7 °F 37.7 °F 37.4 °F 78% 29.87 in 10.0 mi South 11.5 mph - N/A   Mostly Cloudy
1:35 PM 44.1 °F 38.6 °F 37.6 °F 78% 29.86 in 10.0 mi South 10.4 mph - N/A   Overcast
1:55 PM 43.3 °F 37.7 °F 37.8 °F 81% 29.86 in 10.0 mi South 10.4 mph - N/A   Mostly Cloudy
2:15 PM 42.6 °F 36.8 °F 37.4 °F 82% 29.86 in 10.0 mi South 10.4 mph - N/A   Overcast
2:35 PM 42.3 °F 36.3 °F 37.8 °F 84% 29.85 in 10.0 mi South 10.4 mph - N/A   Overcast
2:55 PM 42.1 °F 36.6 °F 37.8 °F 85% 29.85 in 10.0 mi South 9.2 mph - N/A   Overcast
3:15 PM 42.3 °F 37.3 °F 38.3 °F 86% 29.85 in 10.0 mi South 8.1 mph - N/A   Overcast
3:35 PM 42.1 °F 39.2 °F 38.5 °F 87% 29.84 in 10.0 mi South 4.6 mph - N/A   Overcast
3:55 PM 42.1 °F 39.2 °F 38.5 °F 87% 29.84 in 10.0 mi South 4.6 mph - N/A   Overcast
4:15 PM 42.8 °F 40.1 °F 39.4 °F 88% 29.84 in 10.0 mi South 4.6 mph - N/A   Overcast
4:35 PM 41.4 °F 38.4 °F 38.7 °F 90% 29.84 in 10.0 mi SSE 4.6 mph - N/A   Overcast
4:55 PM 41.9 °F 38.2 °F 39.2 °F 90% 29.84 in 10.0 mi South 5.8 mph - N/A   Overcast
5:15 PM 43.0 °F 37.7 °F 40.3 °F 90% 29.83 in 10.0 mi South 9.2 mph - N/A   Overcast
5:35 PM 43.3 °F 37.7 °F 40.5 °F 90% 29.83 in 10.0 mi South 10.4 mph - N/A   Overcast
5:55 PM 43.0 °F 37.2 °F 40.3 °F 90% 29.83 in 10.0 mi South 10.4 mph - N/A   Overcast
6:15 PM 43.9 °F 37.9 °F 41.4 °F 91% 29.83 in 10.0 mi South 11.5 mph - N/A   Overcast
6:35 PM 43.9 °F 37.9 °F 41.0 °F 90% 29.82 in 10.0 mi South 11.5 mph - N/A   Overcast
6:55 PM 43.9 °F 38.8 °F 41.2 °F 90% 29.83 in 10.0 mi South 9.2 mph - N/A   Overcast
7:15 PM 43.7 °F 38.1 °F 41.0 °F 90% 29.83 in 10.0 mi South 10.4 mph - N/A   Overcast
7:35 PM 43.0 °F 37.2 °F 40.6 °F 91% 29.83 in 10.0 mi South 10.4 mph - N/A   Overcast
7:55 PM 42.8 °F 37.0 °F 40.5 °F 91% 29.82 in 7.0 mi South 10.4 mph - N/A   Overcast
8:15 PM 42.8 °F 36.6 °F 40.8 °F 93% 29.81 in 7.0 mi South 11.5 mph - N/A   Overcast
8:35 PM 43.2 °F 37.0 °F 41.2 °F 93% 29.80 in 7.0 mi South 11.5 mph - N/A   Overcast
8:55 PM 43.5 °F 38.3 °F 41.4 °F 92% 29.80 in 7.0 mi South 9.2 mph - N/A   Overcast
9:15 PM 44.8 °F 39.4 °F 42.8 °F 93% 29.79 in 7.0 mi South 10.4 mph - N/A   Overcast
9:35 PM 44.6 °F 38.8 °F 42.3 °F 91% 29.79 in 7.0 mi South 11.5 mph - N/A   Overcast
9:55 PM 44.6 °F 38.8 °F 42.3 °F 91% 29.79 in 7.0 mi South 11.5 mph - N/A   Overcast
10:15 PM 44.1 °F 38.1 °F 42.1 °F 93% 29.78 in 7.0 mi South 11.5 mph - N/A   Overcast
10:35 PM 44.2 °F 38.8 °F 42.4 °F 93% 29.78 in 7.0 mi South 10.4 mph - N/A   Overcast
10:55 PM 44.6 °F 41.4 °F 42.8 °F 93% 29.78 in 5.0 mi South 5.8 mph - N/A   Overcast
11:15 PM 45.0 °F 42.6 °F 43.2 °F 93% 29.78 in 5.0 mi South 4.6 mph - N/A   Overcast
11:35 PM 44.8 °F 42.4 °F 43.2 °F 94% 29.77 in 7.0 mi SSW 4.6 mph - N/A   Overcast
11:55 PM 46.6 °F - 44.8 °F 93% 29.77 in 7.0 mi South 6.9 mph - N/A Rain Light Rain